Time,TemperatureF,DewpointF,PressureIn,WindDirection,WindDirectionDegrees,WindSpeedMPH,WindSpeedGustMPH,Humidity,HourlyPrecipIn,Conditions,Clouds,dailyrainin,SoftwareType,DateUTC
2013-11-04 00:01:00,42.8,27.0,31.12,NW,315,2.0,-999.0,55,-99.99,,,0.00,weatherlink.com 1.10,2013-11-04 05:01:00,
2013-11-04 00:17:00,42.3,27.0,31.12,NNW,329,0.0,-999.0,56,-99.99,,,0.00,weatherlink.com 1.10,2013-11-04 05:17:00,
2013-11-04 00:32:00,42.0,28.0,31.12,WNW,288,0.0,-999.0,57,-99.99,,,0.00,weatherlink.com 1.10,2013-11-04 05:32:00,
2013-11-04 00:47:00,41.6,28.0,31.12,SE,129,0.0,-999.0,58,-99.99,,,0.00,weatherlink.com 1.10,2013-11-04 05:47:00,
2013-11-04 01:02:00,41.2,27.0,31.12,WSW,240,1.0,-999.0,57,-99.99,,,0.00,weatherlink.com 1.10,2013-11-04 06:02:00,
2013-11-04 01:17:00,40.9,27.0,31.12,NNE,21,1.0,-999.0,59,-99.99,,,0.00,weatherlink.com 1.10,2013-11-04 06:17:00,
2013-11-04 01:32:00,40.1,26.0,31.12,WNW,294,2.0,-999.0,58,-99.99,,,0.00,weatherlink.com 1.10,2013-11-04 06:32:00,
2013-11-04 01:47:00,39.6,26.0,31.12,NNE,33,0.0,-999.0,58,-99.99,,,0.00,weatherlink.com 1.10,2013-11-04 06:47:00,
2013-11-04 02:02:00,39.3,25.0,31.12,WNW,302,0.0,-999.0,58,-99.99,,,0.00,weatherlink.com 1.10,2013-11-04 07:02:00,
2013-11-04 02:17:00,39.0,25.0,31.12,ESE,103,6.0,-999.0,58,-99.99,,,0.00,weatherlink.com 1.10,2013-11-04 07:17:00,
2013-11-04 02:32:00,38.8,25.0,31.12,NE,40,1.0,-999.0,59,-99.99,,,0.00,weatherlink.com 1.10,2013-11-04 07:32:00,
2013-11-04 02:47:00,38.5,26.0,31.12,NW,317,0.0,-999.0,60,-99.99,,,0.00,weatherlink.com 1.10,2013-11-04 07:47:00,
2013-11-04 03:02:00,38.1,25.0,31.12,NNE,14,0.0,-999.0,59,-99.99,,,0.00,weatherlink.com 1.10,2013-11-04 08:02:00,
2013-11-04 03:17:00,37.8,25.0,31.12,WSW,252,3.0,-999.0,60,-99.99,,,0.00,weatherlink.com 1.10,2013-11-04 08:17:00,
2013-11-04 03:32:00,37.5,25.0,31.12,SSE,167,0.0,-999.0,60,-99.99,,,0.00,weatherlink.com 1.10,2013-11-04 08:32:00,
2013-11-04 03:47:00,37.2,24.0,31.12,NE,40,0.0,-999.0,60,-99.99,,,0.00,weatherlink.com 1.10,2013-11-04 08:47:00,
2013-11-04 04:02:00,37.0,25.0,31.12,NW,326,0.0,-999.0,61,-99.99,,,0.00,weatherlink.com 1.10,2013-11-04 09:02:00,
2013-11-04 04:17:00,36.7,25.0,31.12,East,86,0.0,-999.0,62,-99.99,,,0.00,weatherlink.com 1.10,2013-11-04 09:17:00,
2013-11-04 04:32:00,36.6,24.0,31.12,SSW,195,0.0,-999.0,60,-99.99,,,0.00,weatherlink.com 1.10,2013-11-04 09:32:00,
2013-11-04 04:47:00,36.4,24.0,31.12,NNW,337,0.0,-999.0,61,-99.99,,,0.00,weatherlink.com 1.10,2013-11-04 09:47:00,
2013-11-04 05:02:00,36.2,24.0,31.12,West,275,0.0,-999.0,61,-99.99,,,0.00,weatherlink.com 1.10,2013-11-04 10:02:00,
2013-11-04 05:17:00,36.1,24.0,31.12,North,5,0.0,-999.0,62,-99.99,,,0.00,weatherlink.com 1.10,2013-11-04 10:17:00,
2013-11-04 05:32:00,35.9,24.0,31.12,SE,126,0.0,-999.0,62,-99.99,,,0.00,weatherlink.com 1.10,2013-11-04 10:32:00,
2013-11-04 05:47:00,35.7,24.0,31.12,ESE,123,2.0,-999.0,63,-99.99,,,0.00,weatherlink.com 1.10,2013-11-04 10:47:00,
2013-11-04 06:02:00,35.4,23.0,31.12,NNW,339,0.0,-999.0,62,-99.99,,,0.00,weatherlink.com 1.10,2013-11-04 11:02:00,
2013-11-04 06:17:00,35.3,23.0,31.12,NW,313,0.0,-999.0,62,-99.99,,,0.00,weatherlink.com 1.10,2013-11-04 11:17:00,
2013-11-04 06:32:00,35.3,24.0,31.12,North,10,0.0,-999.0,63,-99.99,,,0.00,weatherlink.com 1.10,2013-11-04 11:32:00,
2013-11-04 06:47:00,35.1,23.0,31.12,NW,306,0.0,-999.0,62,-99.99,,,0.00,weatherlink.com 1.10,2013-11-04 11:47:00,
2013-11-04 07:02:00,35.1,24.0,31.12,NNE,15,0.0,-999.0,63,-99.99,,,0.00,weatherlink.com 1.10,2013-11-04 12:02:00,
2013-11-04 07:17:00,35.2,23.0,31.12,NW,306,0.0,-999.0,62,-99.99,,,0.00,weatherlink.com 1.10,2013-11-04 12:17:00,
2013-11-04 07:32:00,35.6,24.0,31.12,ENE,57,2.0,-999.0,62,-99.99,,,0.00,weatherlink.com 1.10,2013-11-04 12:32:00,
2013-11-04 07:47:00,36.0,24.0,31.12,NW,322,0.0,-999.0,61,-99.99,,,0.00,weatherlink.com 1.10,2013-11-04 12:47:00,
2013-11-04 08:02:00,36.6,24.0,31.12,ESE,111,0.0,-999.0,61,-99.99,,,0.00,weatherlink.com 1.10,2013-11-04 13:02:00,
2013-11-04 08:17:00,36.9,24.0,31.12,WSW,245,1.0,-999.0,61,-99.99,,,0.00,weatherlink.com 1.10,2013-11-04 13:17:00,
2013-11-04 08:32:00,37.4,25.0,31.12,NNW,342,0.0,-999.0,61,-99.99,,,0.00,weatherlink.com 1.10,2013-11-04 13:32:00,
2013-11-04 08:47:00,39.5,25.0,31.12,WNW,284,0.0,-999.0,57,-99.99,,,0.00,weatherlink.com 1.10,2013-11-04 13:47:00,
2013-11-04 09:02:00,40.5,26.0,31.12,East,83,0.0,-999.0,57,-99.99,,,0.00,weatherlink.com 1.10,2013-11-04 14:02:00,
2013-11-04 09:17:00,41.6,26.0,31.12,NW,324,0.0,-999.0,55,-99.99,,,0.00,weatherlink.com 1.10,2013-11-04 14:17:00,
2013-11-04 09:32:00,41.4,26.0,31.12,ESE,117,0.0,-999.0,54,-99.99,,,0.00,weatherlink.com 1.10,2013-11-04 14:32:00,
2013-11-04 09:47:00,42.0,26.0,31.12,NE,37,0.0,-999.0,54,-99.99,,,0.00,weatherlink.com 1.10,2013-11-04 14:47:00,
2013-11-04 10:02:00,42.5,27.0,31.12,North,360,2.0,-999.0,55,-99.99,,,0.00,weatherlink.com 1.10,2013-11-04 15:02:00,
2013-11-04 10:17:00,42.6,25.0,31.12,NNW,348,0.0,-999.0,51,-99.99,,,0.00,weatherlink.com 1.10,2013-11-04 15:17:00,
2013-11-04 10:32:00,42.5,26.0,31.12,NNW,346,0.0,-999.0,52,-99.99,,,0.00,weatherlink.com 1.10,2013-11-04 15:32:00,
2013-11-04 10:47:00,42.9,25.0,31.12,NW,316,0.0,-999.0,50,-99.99,,,0.00,weatherlink.com 1.10,2013-11-04 15:47:00,
2013-11-04 11:02:00,43.1,26.0,31.12,SSE,167,1.0,-999.0,51,-99.99,,,0.00,weatherlink.com 1.10,2013-11-04 16:02:00,
2013-11-04 11:18:00,43.6,26.0,31.12,NE,49,0.0,-999.0,50,-99.99,,,0.00,weatherlink.com 1.10,2013-11-04 16:18:00,
2013-11-04 11:33:00,43.8,26.0,31.12,East,80,0.0,-999.0,50,-99.99,,,0.00,weatherlink.com 1.10,2013-11-04 16:33:00,
2013-11-04 11:48:00,44.0,27.0,31.12,NNE,18,0.0,-999.0,51,-99.99,,,0.00,weatherlink.com 1.10,2013-11-04 16:48:00,
2013-11-04 12:03:00,44.3,27.0,31.12,East,81,0.0,-999.0,51,-99.99,,,0.00,weatherlink.com 1.10,2013-11-04 17:03:00,
2013-11-04 12:18:00,45.0,27.0,31.12,SE,130,0.0,-999.0,50,-99.99,,,0.00,weatherlink.com 1.10,2013-11-04 17:18:00,
2013-11-04 12:33:00,44.8,27.0,31.12,NE,34,0.0,-999.0,49,-99.99,,,0.00,weatherlink.com 1.10,2013-11-04 17:33:00,
2013-11-04 12:48:00,45.0,28.0,31.12,SSW,209,0.0,-999.0,51,-99.99,,,0.00,weatherlink.com 1.10,2013-11-04 17:48:00,
2013-11-04 13:03:00,45.0,27.0,31.12,NNW,327,1.0,-999.0,49,-99.99,,,0.00,weatherlink.com 1.10,2013-11-04 18:03:00,
2013-11-04 13:18:00,45.0,27.0,31.12,NNW,345,0.0,-999.0,49,-99.99,,,0.00,weatherlink.com 1.10,2013-11-04 18:18:00,
2013-11-04 13:33:00,45.6,28.0,31.12,ESE,123,0.0,-999.0,50,-99.99,,,0.00,weatherlink.com 1.10,2013-11-04 18:33:00,
2013-11-04 13:48:00,45.9,28.0,31.12,West,278,0.0,-999.0,49,-99.99,,,0.00,weatherlink.com 1.10,2013-11-04 18:48:00,
2013-11-04 14:03:00,46.1,27.0,31.12,SE,128,0.0,-999.0,48,-99.99,,,0.00,weatherlink.com 1.10,2013-11-04 19:03:00,
2013-11-04 14:18:00,46.0,27.0,31.12,NNE,29,1.0,-999.0,48,-99.99,,,0.00,weatherlink.com 1.10,2013-11-04 19:18:00,
2013-11-04 14:33:00,45.9,27.0,31.12,NE,55,0.0,-999.0,48,-99.99,,,0.00,weatherlink.com 1.10,2013-11-04 19:33:00,
2013-11-04 14:48:00,46.0,28.0,31.12,NE,51,0.0,-999.0,50,-99.99,,,0.00,weatherlink.com 1.10,2013-11-04 19:48:00,
2013-11-04 15:03:00,46.3,27.0,31.12,North,355,0.0,-999.0,48,-99.99,,,0.00,weatherlink.com 1.10,2013-11-04 20:03:00,
2013-11-04 15:18:00,46.1,27.0,31.12,North,355,0.0,-999.0,48,-99.99,,,0.00,weatherlink.com 1.10,2013-11-04 20:18:00,
2013-11-04 15:33:00,46.1,28.0,31.12,ESE,111,0.0,-999.0,49,-99.99,,,0.00,weatherlink.com 1.10,2013-11-04 20:33:00,
2013-11-04 15:48:00,46.0,28.0,31.12,ENE,75,0.0,-999.0,49,-99.99,,,0.00,weatherlink.com 1.10,2013-11-04 20:48:00,
2013-11-04 16:03:00,45.9,28.0,31.12,East,100,0.0,-999.0,49,-99.99,,,0.00,weatherlink.com 1.10,2013-11-04 21:03:00,
2013-11-04 16:18:00,45.4,27.0,31.12,East,91,0.0,-999.0,49,-99.99,,,0.00,weatherlink.com 1.10,2013-11-04 21:18:00,
2013-11-04 16:33:00,44.8,27.0,31.12,SE,134,0.0,-999.0,51,-99.99,,,0.00,weatherlink.com 1.10,2013-11-04 21:33:00,
2013-11-04 16:48:00,44.3,26.0,31.12,SE,134,0.0,-999.0,49,-99.99,,,0.00,weatherlink.com 1.10,2013-11-04 21:48:00,
2013-11-04 17:03:00,43.8,26.0,31.12,SE,136,0.0,-999.0,50,-99.99,,,0.00,weatherlink.com 1.10,2013-11-04 22:03:00,
2013-11-04 17:18:00,43.6,26.0,31.12,ENE,59,0.0,-999.0,50,-99.99,,,0.00,weatherlink.com 1.10,2013-11-04 22:18:00,
2013-11-04 17:33:00,43.3,25.0,31.12,ENE,78,0.0,-999.0,49,-99.99,,,0.00,weatherlink.com 1.10,2013-11-04 22:33:00,
2013-11-04 17:48:00,43.2,25.0,31.12,North,5,0.0,-999.0,49,-99.99,,,0.00,weatherlink.com 1.10,2013-11-04 22:48:00,
2013-11-04 18:03:00,42.9,25.0,31.12,ENE,65,0.0,-999.0,50,-99.99,,,0.00,weatherlink.com 1.10,2013-11-04 23:03:00,
2013-11-04 18:18:00,42.5,25.0,31.12,ENE,65,0.0,-999.0,51,-99.99,,,0.00,weatherlink.com 1.10,2013-11-04 23:18:00,
2013-11-04 18:33:00,42.0,26.0,31.12,ENE,68,0.0,-999.0,53,-99.99,,,0.00,weatherlink.com 1.10,2013-11-04 23:33:00,
2013-11-04 18:48:00,41.8,26.0,31.12,ENE,69,0.0,-999.0,54,-99.99,,,0.00,weatherlink.com 1.10,2013-11-04 23:48:00,
2013-11-04 19:03:00,41.5,27.0,31.12,ENE,69,0.0,-999.0,56,-99.99,,,0.00,weatherlink.com 1.10,2013-11-05 00:03:00,
2013-11-04 19:18:00,40.8,27.0,31.12,ENE,69,0.0,-999.0,58,-99.99,,,0.00,weatherlink.com 1.10,2013-11-05 00:18:00,
2013-11-04 19:33:00,39.8,28.0,31.12,ENE,68,0.0,-999.0,62,-99.99,,,0.00,weatherlink.com 1.10,2013-11-05 00:33:00,
2013-11-04 19:48:00,39.0,28.0,31.12,ENE,68,0.0,-999.0,65,-99.99,,,0.00,weatherlink.com 1.10,2013-11-05 00:48:00,
2013-11-04 20:03:00,38.2,28.0,31.12,ENE,69,0.0,-999.0,68,-99.99,,,0.00,weatherlink.com 1.10,2013-11-05 01:03:00,
2013-11-04 20:18:00,37.7,29.0,31.12,ENE,69,0.0,-999.0,70,-99.99,,,0.00,weatherlink.com 1.10,2013-11-05 01:18:00,
2013-11-04 20:33:00,37.5,29.0,31.12,ENE,69,0.0,-999.0,72,-99.99,,,0.00,weatherlink.com 1.10,2013-11-05 01:33:00,
2013-11-04 20:48:00,37.7,30.0,31.12,ENE,68,0.0,-999.0,73,-99.99,,,0.00,weatherlink.com 1.10,2013-11-05 01:48:00,
2013-11-04 21:03:00,37.9,30.0,31.12,ENE,69,0.0,-999.0,73,-99.99,,,0.00,weatherlink.com 1.10,2013-11-05 02:03:00,
2013-11-04 21:18:00,38.4,30.0,31.12,ENE,69,0.0,-999.0,73,-99.99,,,0.00,weatherlink.com 1.10,2013-11-05 02:18:00,
2013-11-04 21:33:00,38.7,31.0,31.12,ENE,69,0.0,-999.0,73,-99.99,,,0.00,weatherlink.com 1.10,2013-11-05 02:33:00,
2013-11-04 21:48:00,38.5,31.0,31.12,ENE,68,0.0,-999.0,73,-99.99,,,0.00,weatherlink.com 1.10,2013-11-05 02:48:00,
2013-11-04 22:03:00,38.4,31.0,31.12,ENE,69,0.0,-999.0,74,-99.99,,,0.00,weatherlink.com 1.10,2013-11-05 03:03:00,
2013-11-04 22:18:00,38.4,31.0,31.12,ENE,69,0.0,-999.0,75,-99.99,,,0.00,weatherlink.com 1.10,2013-11-05 03:18:00,
2013-11-04 22:33:00,38.2,31.0,31.12,ENE,69,0.0,-999.0,75,-99.99,,,0.00,weatherlink.com 1.10,2013-11-05 03:33:00,
2013-11-04 22:48:00,37.9,31.0,31.12,ENE,68,0.0,-999.0,76,-99.99,,,0.00,weatherlink.com 1.10,2013-11-05 03:48:00,
2013-11-04 23:03:00,37.6,31.0,31.12,ENE,68,0.0,-999.0,77,-99.99,,,0.00,weatherlink.com 1.10,2013-11-05 04:03:00,
2013-11-04 23:18:00,37.4,31.0,31.12,ENE,68,0.0,-999.0,78,-99.99,,,0.00,weatherlink.com 1.10,2013-11-05 04:18:00,
2013-11-04 23:33:00,37.3,31.0,31.12,ENE,69,0.0,-999.0,79,-99.99,,,0.00,weatherlink.com 1.10,2013-11-05 04:33:00,
2013-11-04 23:48:00,37.3,31.0,31.12,ENE,69,0.0,-999.0,79,-99.99,,,0.00,weatherlink.com 1.10,2013-11-05 04:48:00,